Regional Weather Roundup
Issued by NWS

Home | Current Version | Previous Version | Text Only | Print | Product List | Glossary Off
Versions: 1 2 3 4 5 6 7 8 9 10 11 12 13 14 15 16 17 18 19 20 21 22 23 24 25 26 27 28

000
ASUS45 KBOU 190010
RWRCO

WEATHER ROUNDUP FOR COLORADO
NATIONAL WEATHER SERVICE DENVER/BOULDER CO
500 PM MST SAT NOV 18 2017

NOTE: "FAIR" INDICATES FEW OR NO CLOUDS BELOW 12000 FEET WITH NO
SIGNIFICANT WEATHER AND/OR OBSTRUCTIONS TO VISIBILITY.

COZ001>005-013-030-031-190100-
...NORTHWEST COLORADO...

CITY           SKY/WX    TMP DP  RH WIND       PRES   REMARKS
CRAIG          FAIR      25  16  68 E3        30.38S
HAYDEN         FAIR      25  18  74 S3        30.38S
MEEKER         FAIR      29  18  63 MISG      30.36F
RABBIT EARS PA FAIR      12   9  85 W12       30.28S WCI  -2
STEAMBOAT SPGS FAIR      25  13  60 CALM      30.37S
WALDEN         FAIR      19   5  53 S8        30.31R WCI   9
$$

COZ006>008-011-190100-
...WEST CENTRAL VALLEYS...

CITY           SKY/WX    TMP DP  RH WIND       PRES   REMARKS
GRAND JUNCTION FAIR      40  16  37 E3        30.37F
MONTROSE       FAIR      38  16  40 CALM      30.40R
EAGLE          FAIR      32  20  61 SE3       30.39R
RIFLE          FAIR      34  21  59 S7        30.39S WCI  28
DELTA          FAIR      43  10  26 CALM      30.39S
NUCLA          FAIR      45   7  21 N5        30.38S
$$

COZ017>023-064>068-190100-
...SOUTHWEST COLORADO...

CITY           SKY/WX    TMP DP  RH WIND       PRES   REMARKS
DURANGO        FAIR      39  13  34 SW8       30.32R
CORTEZ         FAIR      41   6  23 W6        30.33R
PAGOSA SPRINGS FAIR      39  12  32 CALM      30.33R
TELLURIDE      FAIR      31  13  46 W6        30.37S WCI  26
WOLF CREEK PAS FAIR      19  14  79 SW12      30.41R WCI   7
$$

COZ009-010-012-014-032>034-037-058>063-190100-
...CENTRAL COLORADO...

CITY           SKY/WX    TMP DP  RH WIND       PRES   REMARKS
ASPEN          FAIR      23  13  65 S7        30.36R WCI  15
BUENA VISTA    FAIR      32  14  47 N5        30.26S WCI  27
COPPER MTN     FAIR      18   5  57 MISG      30.31R
BERTHOUD PASS  FAIR       3  -8  60 NW29G38   30.24R WCI -21
COTTONWOOD PAS FAIR      32   5  32 N3        30.28S
GUNNISON       FAIR      29  14  53 CALM      30.36R
KREMMLING      FAIR      34  14  44 SW3       30.35R
LEADVILLE      FAIR      19   9  65 N7        30.30R WCI  10
MONARCH PASS   FAIR      18   7  62 W32       30.41R WCI  -3
SALIDA         FAIR      36  10  34 W5        30.34R
SUNLIGHT       FAIR      18  10  73 MISG      30.38S
WILKERSON PASS FAIR      21   0  39 W3        30.31R
$$

COZ069>075-190100-
...SAN LUIS VALLEY/SANGRE DE CRISTO MOUNTAINS...

CITY           SKY/WX    TMP DP  RH WIND       PRES   REMARKS
ALAMOSA        FAIR      32  11  41 S6        30.30R WCI  26
DEL NORTE      FAIR      32  12  43 E3        30.31R
LA VETA PASS   FAIR      27   3  36 SW22G35     N/A  WCI  12
SAGUACHE       FAIR      32   5  32 NW10      30.31R WCI  24
$$

COZ035-036-038>040-190100-
...NORTHERN COLORADO FRONT RANGE...

CITY           SKY/WX    TMP DP  RH WIND       PRES   REMARKS
DENVER INTL AP FAIR      34  23  64 S12       30.18S WCI  25
DMNS CITY PARK   N/A     44  -2  14 W16       30.19R
AURORA         PTCLDY    37  21  51 CALM      30.20R
FRONT RANGE AP CLEAR     36  27  69 E14       30.20S
ERIE MUNI ARPT FAIR      41   8  26 SW3       30.23S
BOULDER MUN AP FAIR      43  16  33 CALM      30.18R
CENTENNIAL     FAIR      42  10  27 NW8       30.19R
BROOMFIELD     PTCLDY    39   7  26 W13       30.19S
FORT COLLINS   FAIR      39  15  37 E8        30.20R
LONGMONT       NOT AVBL
$$

COZ041-046-047-076>085-087-088-190100-
...PIKES PEAK/PALMER DIVIDE AND SOUTHERN FOOTHILLS...

CITY           SKY/WX    TMP DP  RH WIND       PRES   REMARKS
COLO. SPRINGS  FAIR      35  14  42 SE8       30.24R WCI  29
A. F. ACADEMY  FAIR      35  13  40 S8        30.22R WCI  28
SCHRIEVER AFB  FAIR      33  11  40 SW5       30.24R WCI  28
CHEYENNE MTN   FAIR      35  12  39 S6        30.17R WCI  30
ELLICOTT       NOT AVBL
FALCON         FAIR      31  12  45 SW10      30.24R WCI  22
FORT CARSON    FAIR      37  13  38 S10       30.22R
LIMON          FAIR      32  13  45 S5        30.22F WCI  27
MONUMENT HILL  FAIR      32  18  55 SW8       30.23R WCI  25
CANON CITY     FAIR      41  21  45 NE3       30.22R
WALSENBURG     FAIR      37  28  70 W5        30.22R
TRINIDAD       FAIR      38  23  55 SE5       30.25R
$$

COZ042>045-048>051-090-091-190100-
...NORTHEAST COLORADO...

CITY           SKY/WX    TMP DP  RH WIND       PRES   REMARKS
GREELEY ARPT   FAIR      39  17  41 SE6       30.20S
AKRON          FAIR      34  13  41 W3        30.21R
BURLINGTON     FAIR      35  13  40 W3        30.23S
WRAY           NOT AVBL
YUMA           FAIR      36  16  44 NW6       30.22R
STERLING       FAIR      37  18  44 N8        30.19S
HOLYOKE        FAIR      41  14  33 NW5       30.21S
FORT MORGAN    FAIR      39   8  28 CALM      30.21S
$$

COZ086-089-092>099-190100-
...SOUTHEAST COLORADO...

CITY           SKY/WX    TMP DP  RH WIND       PRES   REMARKS
PUEBLO         FAIR      43  19  38 SE8       30.23R
LA JUNTA       FAIR      44  15  31 S6        30.24S
LAMAR          FAIR      46  12  25 CALM      30.25R
SPRINGFIELD      N/A     37  15  40 CALM      30.27R
$$




USA.gov is the U.S. government's official web portal to all federal, state and local government web resources and services.